Regional Weather Roundup
Issued by NWS

Home | Current Version | Previous Version | Graphics & Text | Print | Product List | Glossary On
Versions: 1 2 3 4 5 6 7 8 9 10 11 12 13 14 15 16 17 18 19 20 21 22 23 24 25 26 27 28 29 30 31 32 33 34 35 36 37 38 39 40 41 42 43 44 45 46 47 48 49 50
000
ASUS45 KBOI 271510
RWRID

IDAHO REGIONAL WEATHER ROUNDUP
NATIONAL WEATHER SERVICE BOISE ID
900 AM MDT TUE JUN 27 2017

NOTE: "FAIR" INDICATES FEW OR NO CLOUDS BELOW 12000 FEET
WITH NO SIGNIFICANT WEATHER AND/OR OBSTRUCTIONS TO VISIBILITY

IDZ012-014-271600-
SOUTHWEST IDAHO


CITY           SKY/WX    TMP DP  RH WIND       PRES   REMARKS
BOISE          MOSUNNY   71  50  47 VRB5      29.94R
CALDWELL       MOSUNNY   72  55  55 NW6       29.93R
MOUNTAIN HOME  MOSUNNY   75  49  40 NW17      29.93R
$$

IDZ016-017-271600-
SOUTHCENTRAL IDAHO


CITY           SKY/WX    TMP DP  RH WIND       PRES   REMARKS
JEROME         SUNNY     68  49  50 SW12      29.98R
TWIN FALLS     SUNNY     72  46  39 W16G28    29.98R
$$

IDZ019>023-271600-
SOUTHEAST IDAHO


CITY           SKY/WX    TMP DP  RH WIND       PRES   REMARKS
IDAHO FALLS    MOSUNNY   67  50  54 N6        29.96F
POCATELLO      MOSUNNY   67  51  56 W20       29.99R
REXBURG        CLOUDY    63  47  55 E6        29.97S
$$

IDZ006-010-011-018-031-032-271600-
CENTRAL IDAHO MOUNTAINS


CITY           SKY/WX    TMP DP  RH WIND       PRES   REMARKS
MCCALL         SUNNY     59  49  69 S5        30.00S
HAILEY         MOSUNNY   66  46  48 NW7       30.01R
STANLEY          N/A     54  47  77 CALM      30.10S
SALMON         MOSUNNY   63  52  67 N5        29.95F
CHALLIS        MOSUNNY   61  47  59 N3        30.03S
$$

IDZ002-004-006-007-026-271600-
NORTHERN IDAHO


CITY           SKY/WX    TMP DP  RH WIND       PRES   REMARKS
LEWISTON       CLOUDY    70  57  63 CALM      29.88R
LOWELL           N/A     63  57  81 N3        29.88S
COEUR D`ALENE  MOSUNNY   64  55  72 W6        29.89R
MULLAN PASS    PTSUNNY   52  44  74 VRB5      29.99R
$$



USA.gov is the U.S. government's official web portal to all federal, state and local government web resources and services.